Powrót do katalogu

STARLINK-34766

AktywnyŁącznośćVLEO
NORAD 66505·PAYLOAD·🇺🇸 United States

Wystrzelony Nov 15, 2025 z Cape Canaveral Space Force Station

Loading…

Następne Przeloty (najbliższe 24 godziny)

TLE

ŚwieżeSource: CelesTrak SupGP

Epoka: Sep 14, 2026, 21:13 UTC

1 66505C 25263W   26257.88451389  .00012343  00000+0  44701-3 0  2576
2 66505  43.0027   1.8387 0001642 275.4424 250.2882 15.27577077    14

Śledź STARLINK-34766 w czasie rzeczywistym z AllMySat

Download on the App Store